| time (UTC) | temp C | wind direction | speed KPH | gust KPH | rain 1hr cm | rain 24hr cm | rain mn cm | humidity % | barometer mb |
| 20260509064553 | 11 | 163 | 4.8 | 12.9 | 0.00 | 0.00 | 0.00 | 70 | 1006.9 |
| 20260509063052 | 11 | 172 | 6.4 | 16.1 | 0.00 | 0.00 | 0.00 | 64 | 1007.2 |
| 20260509061552 | 11 | 146 | 4.8 | 16.1 | 0.00 | 0.00 | 0.00 | 58 | 1007.3 |
| 20260509060106 | 11 | 226 | 6.4 | 12.9 | 0.00 | 0.00 | 0.00 | 52 | 1007.5 |
| 20260509054553 | 11 | 156 | 4.8 | 11.3 | 0.00 | 0.00 | 0.00 | 44 | 1007.5 |
| 20260509053112 | 11 | 199 | 4.8 | 11.3 | 0.00 | 0.00 | 0.00 | 40 | 1007.5 |
| 20260509051555 | 11 | 224 | 3.2 | 16.1 | 0.00 | 0.00 | 0.00 | 39 | 1007.6 |
| 20260509050053 | 11 | 181 | 4.8 | 9.7 | 0.00 | 0.00 | 0.00 | 39 | 1007.6 |
| 20260509044636 | 11 | 136 | 4.8 | 9.7 | 0.00 | 0.00 | 0.00 | 39 | 1007.8 |
| 20260509043132 | 11 | 172 | 4.8 | 9.7 | 0.00 | 0.00 | 0.00 | 37 | 1008.0 |
| 20260509041555 | 11 | 165 | 3.2 | 8.0 | 0.00 | 0.00 | 0.00 | 36 | 1007.9 |
| 20260509040054 | 11 | 165 | 1.6 | 4.8 | 0.00 | 0.00 | 0.00 | 37 | 1008.1 |
| 20260509034550 | 11 | 174 | 1.6 | 4.8 | 0.00 | 0.00 | 0.00 | 37 | 1008.1 |
| 20260509033049 | 11 | 165 | 1.6 | 4.8 | 0.00 | 0.00 | 0.00 | 36 | 1008.3 |
| 20260509031559 | 11 | 126 | 1.6 | 4.8 | 0.00 | 0.00 | 0.00 | 36 | 1008.4 |
| 20260509030109 | 11 | 0 | 0.0 | 4.8 | 0.00 | 0.00 | 0.00 | 37 | 1008.6 |
| 20260509024554 | 11 | 155 | 0.0 | 3.2 | 0.00 | 0.00 | 0.00 | 38 | 1008.8 |
| 20260509023057 | 9 | 143 | 0.0 | 1.6 | 0.00 | 0.00 | 0.00 | 41 | 1009.0 |
| 20260509021550 | 7 | 0 | 0.0 | 0.0 | 0.00 | 0.00 | 0.00 | 63 | 1009.0 |
| 20260509014555 | 7 | 0 | 0.0 | 0.0 | 0.00 | 0.00 | 0.00 | 60 | 1009.0 |
| 20260509013049 | 8 | 0 | 0.0 | 0.0 | 0.00 | 0.00 | 0.00 | 58 | 1009.0 |
| 20260509011558 | 11 | 0 | 0.0 | 0.0 | 0.00 | 0.00 | 0.00 | 50 | 1008.9 |
| 20260509010050 | 11 | 0 | 0.0 | 0.0 | 0.00 | 0.00 | 0.00 | 43 | 1008.9 |
| 20260509004556 | 13 | 0 | 0.0 | 0.0 | 0.00 | 0.00 | 0.00 | 40 | 1009.0 |
| 20260509003055 | 16 | 0 | 0.0 | 0.0 | 0.00 | 0.00 | 0.00 | 27 | 1009.1 |
| 20260509001550 | 16 | 0 | 0.0 | 4.8 | 0.00 | 0.00 | 0.00 | 26 | 1009.1 |
| 20260509000051 | 16 | 0 | 0.0 | 9.7 | 0.00 | 0.00 | 0.00 | 27 | 1009.4 |
| 20260508234551 | 16 | 304 | 1.6 | 12.9 | 0.00 | 0.00 | 0.00 | 28 | 1009.5 |
| 20260508233048 | 17 | 290 | 1.6 | 6.4 | 0.00 | 0.00 | 0.00 | 28 | 1009.5 |
| 20260508231551 | 17 | 311 | 4.8 | 11.3 | 0.00 | 0.00 | 0.00 | 27 | 1009.6 |
| 20260508230055 | 17 | 281 | 3.2 | 11.3 | 0.00 | 0.00 | 0.00 | 29 | 1009.8 |
| 20260508224620 | 17 | 0 | 4.8 | 12.9 | 0.00 | 0.00 | 0.00 | 30 | 1009.6 |
| 20260508223052 | 17 | 276 | 3.2 | 11.3 | 0.00 | 0.00 | 0.00 | 26 | 1009.7 |
| 20260508221552 | 17 | 30 | 1.6 | 12.9 | 0.00 | 0.00 | 0.00 | 30 | 1009.6 |
| 20260508220056 | 18 | 141 | 3.2 | 11.3 | 0.00 | 0.00 | 0.00 | 29 | 1009.6 |
| 20260508214551 | 17 | 306 | 3.2 | 11.3 | 0.00 | 0.00 | 0.00 | 30 | 1009.7 |
| 20260508213049 | 17 | 66 | 3.2 | 14.5 | 0.00 | 0.00 | 0.00 | 32 | 1009.7 |
| 20260508211553 | 17 | 148 | 1.6 | 14.5 | 0.00 | 0.00 | 0.00 | 32 | 1009.7 |
| 20260508210051 | 17 | 44 | 6.4 | 16.1 | 0.00 | 0.00 | 0.00 | 30 | 1009.9 |
| 20260508204553 | 17 | 262 | 4.8 | 14.5 | 0.00 | 0.00 | 0.00 | 26 | 1009.9 |
| 20260508203058 | 17 | 292 | 3.2 | 12.9 | 0.00 | 0.00 | 0.00 | 28 | 1010.0 |
| 20260508201558 | 18 | 297 | 1.6 | 14.5 | 0.00 | 0.00 | 0.00 | 28 | 1010.2 |
| 20260508200051 | 17 | 24 | 3.2 | 14.5 | 0.00 | 0.00 | 0.00 | 30 | 1010.3 |
| 20260508194548 | 17 | 155 | 1.6 | 14.5 | 0.00 | 0.00 | 0.00 | 33 | 1010.4 |
| 20260508193050 | 17 | 302 | 3.2 | 12.9 | 0.00 | 0.00 | 0.00 | 29 | 1010.6 |
| 20260508191551 | 17 | 293 | 3.2 | 11.3 | 0.00 | 0.00 | 0.00 | 30 | 1010.6 |
| 20260508190053 | 16 | 293 | 4.8 | 11.3 | 0.00 | 0.00 | 0.00 | 31 | 1010.8 |
| 20260508184550 | 17 | 311 | 3.2 | 16.1 | 0.00 | 0.00 | 0.00 | 29 | 1011.1 |
| 20260508183047 | 16 | 278 | 3.2 | 11.3 | 0.00 | 0.00 | 0.00 | 31 | 1011.0 |
| 20260508181548 | 16 | 323 | 4.8 | 16.1 | 0.00 | 0.00 | 0.00 | 31 | 1011.5 |
| 20260508180053 | 16 | 276 | 1.6 | 12.9 | 0.00 | 0.00 | 0.00 | 38 | 1011.4 |
| 20260508174556 | 16 | 51 | 3.2 | 14.5 | 0.00 | 0.00 | 0.00 | 34 | 1011.7 |
| 20260508173055 | 16 | 299 | 6.4 | 16.1 | 0.00 | 0.00 | 0.00 | 33 | 1011.9 |
| 20260508171548 | 16 | 294 | 3.2 | 11.3 | 0.00 | 0.00 | 0.00 | 35 | 1012.2 |
| 20260508170050 | 16 | 304 | 0.0 | 11.3 | 0.00 | 0.00 | 0.00 | 35 | 1012.3 |
| 20260508164555 | 15 | 269 | 1.6 | 9.7 | 0.00 | 0.00 | 0.00 | 36 | 1012.5 |
| 20260508163053 | 15 | 245 | 1.6 | 16.1 | 0.00 | 0.00 | 0.00 | 36 | 1012.9 |
| 20260508161557 | 15 | 289 | 3.2 | 11.3 | 0.00 | 0.00 | 0.00 | 47 | 1013.0 |
| 20260508160054 | 15 | 152 | 1.6 | 19.3 | 0.00 | 0.00 | 0.00 | 45 | 1013.1 |
| 20260508154609 | 14 | 259 | 4.8 | 12.9 | 0.00 | 0.00 | 0.00 | 43 | 1013.1 |
| 20260508153054 | 14 | 221 | 4.8 | 9.7 | 0.00 | 0.00 | 0.00 | 46 | 1013.1 |
| 20260508151555 | 13 | 235 | 0.0 | 9.7 | 0.00 | 0.00 | 0.00 | 50 | 1013.3 |
| 20260508144549 | 13 | 146 | 4.8 | 9.7 | 0.00 | 0.00 | 0.00 | 49 | 1013.4 |
| 20260508143106 | 12 | 298 | 1.6 | 8.0 | 0.00 | 0.00 | 0.00 | 53 | 1013.6 |
| 20260508141549 | 11 | 201 | 0.0 | 8.0 | 0.00 | 0.00 | 0.00 | 66 | 1013.7 |
| 20260508140106 | 11 | 236 | 3.2 | 6.4 | 0.00 | 0.00 | 0.00 | 67 | 1013.8 |
| 20260508134555 | 10 | 139 | 3.2 | 8.0 | 0.00 | 0.00 | 0.00 | 69 | 1013.7 |
| 20260508133106 | 10 | 167 | 1.6 | 6.4 | 0.00 | 0.00 | 0.00 | 72 | 1013.8 |
| 20260508131600 | 9 | 333 | 0.0 | 1.6 | 0.00 | 0.00 | 0.00 | 76 | 1013.8 |
| 20260508130050 | 8 | 0 | 0.0 | 1.6 | 0.00 | 0.00 | 0.00 | 80 | 1013.9 |
| 20260508124550 | 6 | 0 | 0.0 | 0.0 | 0.00 | 0.00 | 0.00 | 89 | 1014.0 |
| 20260508123052 | 5 | 0 | 0.0 | 0.0 | 0.00 | 0.00 | 0.00 | 93 | 1014.1 |
| 20260508121552 | 3 | 0 | 0.0 | 0.0 | 0.00 | 0.00 | 0.00 | 94 | 1013.9 |
| 20260508120049 | 2 | 0 | 0.0 | 4.8 | 0.00 | 0.00 | 0.00 | 93 | 1013.6 |
| 20260508114552 | 1 | 0 | 0.0 | 0.0 | 0.00 | 0.00 | 0.00 | 93 | 1013.6 |
| 20260508113055 | 1 | 0 | 0.0 | 0.0 | 0.00 | 0.00 | 0.00 | 93 | 1013.7 |
| 20260508111600 | 0 | 0 | 0.0 | 1.6 | 0.00 | 0.00 | 0.00 | 92 | 1013.6 |
| 20260508110057 | 0 | 0 | 0.0 | 0.0 | 0.00 | 0.00 | 0.00 | 92 | 1013.4 |
| 20260508104552 | 0 | 0 | 0.0 | 0.0 | 0.00 | 0.00 | 0.00 | 91 | 1013.3 |
| 20260508103054 | 0 | 0 | 0.0 | 0.0 | 0.00 | 0.00 | 0.00 | 90 | 1013.2 |
| 20260508101555 | 0 | 0 | 0.0 | 0.0 | 0.00 | 0.00 | 0.00 | 90 | 1013.2 |
| 20260508100050 | 0 | 0 | 0.0 | 0.0 | 0.00 | 0.00 | 0.00 | 90 | 1013.3 |
| 20260508094550 | 0 | 0 | 0.0 | 0.0 | 0.00 | 0.00 | 0.00 | 89 | 1013.4 |
| 20260508093049 | 0 | 0 | 0.0 | 0.0 | 0.00 | 0.00 | 0.00 | 89 | 1013.4 |
| 20260508091608 | 1 | 0 | 0.0 | 0.0 | 0.00 | 0.00 | 0.00 | 89 | 1013.4 |
| 20260508090053 | 1 | 0 | 0.0 | 0.0 | 0.00 | 0.00 | 0.00 | 88 | 1013.5 |
| 20260508084612 | 1 | 0 | 0.0 | 0.0 | 0.00 | 0.00 | 0.00 | 87 | 1013.6 |
| 20260508083103 | 1 | 0 | 0.0 | 0.0 | 0.00 | 0.00 | 0.00 | 85 | 1013.6 |
| 20260508081556 | 2 | 0 | 0.0 | 0.0 | 0.00 | 0.00 | 0.00 | 84 | 1013.6 |
| 20260508080104 | 3 | 0 | 0.0 | 0.0 | 0.00 | 0.00 | 0.00 | 82 | 1013.6 |
| 20260508074549 | 2 | 0 | 0.0 | 0.0 | 0.00 | 0.00 | 0.00 | 81 | 1013.6 |
| 20260508073057 | 3 | 0 | 0.0 | 0.0 | 0.00 | 0.00 | 0.00 | 79 | 1013.8 |
| 20260508071554 | 3 | 0 | 0.0 | 1.6 | 0.00 | 0.00 | 0.00 | 79 | 1013.9 |
| 20260508070056 | 3 | 0 | 0.0 | 0.0 | 0.00 | 0.00 | 0.00 | 82 | 1014.2 |